Location: Góry Miechowskie
(50.3599°N, 20.1803°E)
Time: 16:35:17
(UTC+00:00)

Cosmos 2228 - Pass Details

Date: 20 September 2024
Orbit: 574 x 600 km, 82.5° (Epoch: 12 October)

Event Time Altitude Azimuth Distance (km) Brightness Sun altitude
Exits shadow 01:36:24 37° 340° (NNW) 933 4.0 -25.5°
Drops below altitude 10° 01:39:16 10° 2° (N) 1,947 6.1 -25.2°
Sets 01:41:32 0° 7° (N) 2,858 7.1 -24.9°
